Tacoma, WA

3:04 AM PST on January 19, 2017 (GMT -0800)
McChord Air Force Base

Weather History for KTCM - November, 2011

Change the Weather History Date:

Tuesday, November 29, 2011

  Actual Average Record
Temperature  
Mean Temperature 38 °F -  
Max Temperature 44 °F 46 °F 57 °F (2008)
Min Temperature 32 °F 33 °F 14 °F (2006)
Degree Days  
Heating Degree Days 27    
Moisture  
Dew Point 36 °F    
Average Humidity 97    
Maximum Humidity 100    
Minimum Humidity 81    
Precipitation  
Precipitation 0.06 in - - ()
Sea Level Pressure  
Sea Level Pressure 30.35 in    
Wind  
Wind Speed 2 mph (SSE)    
Max Wind Speed 13 mph    
Max Gust Speed -    
Visibility 3 miles    
Events Fog , Rain    
Averages and records for this station are not official NWS values.
T = Trace of Precipitation, MM = Missing Value Source: NWS Daily Summary

Daily Weather History Graph

Daily Weather History Graph

Search for Another Location

Airport or City:

Trip Planner

Search our weather history database for the weather conditions in past years. The results will help you decide how hot, cold, wet, or windy it might be!

Date:

Astronomy

Nov. 29, 2011 Rise Set
Actual Time 7:32 AM PST 4:23 PM PST
Civil Twilight 6:58 AM PST 4:57 PM PST
Nautical Twilight 6:20 AM PST 5:36 PM PST
Astronomical Twilight 5:43 AM PST 6:12 PM PST
Moon 11:15 AM PST (11/29) 9:31 PM PST (11/29)
Length of Visible Light 9h 59m
Length of Day
8h 50m
Waxing Crescent, 25% of the Moon is Illuminated
Nov 29
Waxing Crescent
Dec 2
First Quarter
Dec 10
Full
Dec 17
Last Quarter
Dec 24
New

Hourly Weather History & Observations

Time (PST) Temp. Windchill Dew Point Humidity Pressure Visibility Wind Dir Wind Speed Gust Speed Precip Events Conditions
12:00 AM 32.0 °F - 32.0 °F 100% 30.44 in 0.5 mi Calm Calm - N/A Fog Fog
12:07 AM 32.0 °F - 32.0 °F 100% 30.43 in 0.2 mi Calm Calm - N/A Fog Fog
12:14 AM 33.8 °F - 32.0 °F 93% 30.43 in 0.2 mi Calm Calm - N/A Fog Fog
12:26 AM 33.8 °F - 32.0 °F 93% 30.43 in 0.2 mi Calm Calm - N/A Fog Fog
12:32 AM 33.8 °F - 32.0 °F 93% 30.43 in 0.2 mi Calm Calm - N/A Fog Fog
12:39 AM 33.8 °F - 32.0 °F 93% 30.43 in 0.2 mi Calm Calm - N/A Fog Fog
12:55 AM 33.3 °F - 33.1 °F 99% 30.43 in 0.2 mi Calm Calm - N/A Fog Fog
12:57 AM 33.8 °F - 33.8 °F 100% 30.43 in 0.2 mi Calm Calm - N/A Fog Fog
12:59 AM 33.8 °F - 33.8 °F 100% 30.43 in 0.2 mi Calm Calm - N/A Fog Fog
1:13 AM 33.8 °F - 33.8 °F 100% 30.43 in 0.2 mi Calm Calm - N/A Fog Fog
1:24 AM 33.8 °F - 33.8 °F 100% 30.43 in 0.2 mi Calm Calm - N/A Fog Fog
1:28 AM 33.8 °F - 33.8 °F 100% 30.43 in 0.2 mi Calm Calm - N/A Fog Fog
1:39 AM 33.8 °F - 33.8 °F 100% 30.43 in 0.2 mi Calm Calm - N/A Fog Fog
1:45 AM 33.8 °F - 33.8 °F 100% 30.43 in 0.2 mi Calm Calm - N/A Fog Fog
1:55 AM 33.8 °F - 33.6 °F 99% 30.43 in 0.2 mi Calm Calm - N/A Fog Fog
1:56 AM 33.8 °F - 33.8 °F 100% 30.43 in 0.2 mi Calm Calm - N/A Fog Fog
2:02 AM 33.8 °F - 33.8 °F 100% 30.43 in 0.2 mi Calm Calm - N/A Fog Fog
2:03 AM 33.8 °F - 33.8 °F 100% 30.43 in 0.2 mi Calm Calm - N/A Fog Fog
2:06 AM 33.8 °F - 33.8 °F 100% 30.43 in 0.2 mi Calm Calm - N/A Fog Fog
2:08 AM 33.8 °F - 33.8 °F 100% 30.43 in 0.2 mi Calm Calm - N/A Fog Fog
2:22 AM 33.8 °F 30.8 °F 33.8 °F 100% 30.43 in 0.2 mi ESE 3.5 mph - N/A Fog Fog
2:27 AM 33.8 °F 29.6 °F 33.8 °F 100% 30.43 in 0.2 mi ESE 4.6 mph - N/A Fog Fog
2:37 AM 33.8 °F 30.8 °F 33.8 °F 100% 30.43 in 0.2 mi ESE 3.5 mph - N/A Fog Fog
2:41 AM 33.8 °F 30.8 °F 33.8 °F 100% 30.43 in 0.2 mi ESE 3.5 mph - N/A Fog Fog
2:44 AM 33.8 °F 29.6 °F 33.8 °F 100% 30.43 in 0.2 mi ESE 4.6 mph - N/A Fog Fog
2:46 AM 33.8 °F 30.8 °F 33.8 °F 100% 30.42 in 0.2 mi ESE 3.5 mph - N/A Fog Fog
2:50 AM 33.8 °F 29.6 °F 33.8 °F 100% 30.43 in 0.2 mi ESE 4.6 mph - N/A Fog Fog
2:55 AM 34.0 °F 29.8 °F 33.8 °F 99% 30.42 in 0.5 mi ESE 4.6 mph - N/A Fog Fog
2:58 AM 33.8 °F 29.6 °F 33.8 °F 100% 30.42 in 0.5 mi ESE 4.6 mph - N/A Fog Fog
3:04 AM 33.8 °F 30.8 °F 33.8 °F 100% 30.42 in 0.8 mi ESE 3.5 mph - N/A   Mist
3:06 AM 33.8 °F 30.8 °F 33.8 °F 100% 30.43 in 0.8 mi ESE 3.5 mph - N/A   Mist
3:08 AM 33.8 °F 30.8 °F 33.8 °F 100% 30.43 in 0.8 mi ESE 3.5 mph - N/A   Mist
3:13 AM 33.8 °F 30.8 °F 33.8 °F 100% 30.43 in 0.8 mi ESE 3.5 mph - N/A   Mist
3:15 AM 33.8 °F 30.8 °F 33.8 °F 100% 30.42 in 1.0 mi ESE 3.5 mph - N/A   Mist
3:21 AM 33.8 °F - 33.8 °F 100% 30.42 in 1.2 mi Calm Calm - N/A   Overcast
3:27 AM 33.8 °F - 33.8 °F 100% 30.42 in 1.8 mi Calm Calm - N/A   Overcast
3:30 AM 33.8 °F - 33.8 °F 100% 30.42 in 2.0 mi Calm Calm - N/A   Overcast
3:33 AM 33.8 °F - 33.8 °F 100% 30.42 in 1.8 mi Calm Calm - N/A   Overcast
3:38 AM 33.8 °F - 33.8 °F 100% 30.41 in 2.0 mi Calm Calm - N/A   Overcast
3:42 AM 33.8 °F - 33.8 °F 100% 30.41 in 2.5 mi Calm Calm - N/A   Overcast
3:45 AM 33.8 °F - 33.8 °F 100% 30.41 in 3.0 mi Calm Calm - N/A   Overcast
3:55 AM 33.8 °F 30.8 °F 33.6 °F 99% 30.39 in 3.0 mi ESE 3.5 mph - N/A   Overcast
3:58 AM 33.8 °F 29.6 °F 33.8 °F 100% 30.39 in 2.5 mi ESE 4.6 mph - N/A   Overcast
4:01 AM 33.8 °F 30.8 °F 33.8 °F 100% 30.38 in 2.0 mi ESE 3.5 mph - N/A   Mostly Cloudy
4:05 AM 33.8 °F - 33.8 °F 100% 30.39 in 1.8 mi Calm Calm - N/A   Mostly Cloudy
4:09 AM 33.8 °F - 33.8 °F 100% 30.39 in 1.8 mi Calm Calm - N/A   Scattered Clouds
4:11 AM 33.8 °F - 33.8 °F 100% 30.40 in 1.5 mi Calm Calm - N/A   Scattered Clouds
4:20 AM 33.8 °F - 33.8 °F 100% 30.39 in 1.8 mi Calm Calm - N/A   Scattered Clouds
4:24 AM 33.8 °F - 33.8 °F 100% 30.39 in 2.0 mi Calm Calm - N/A   Scattered Clouds
4:30 AM 33.8 °F - 33.8 °F 100% 30.39 in 2.0 mi Calm Calm - N/A   Mostly Cloudy
4:37 AM 33.8 °F - 33.8 °F 100% 30.40 in 1.8 mi Calm Calm - N/A   Mostly Cloudy
4:41 AM 33.8 °F - 33.8 °F 100% 30.40 in 1.8 mi Calm Calm - N/A   Scattered Clouds
4:49 AM 33.8 °F - 33.8 °F 100% 30.40 in 1.5 mi Calm Calm - N/A   Scattered Clouds
4:51 AM 33.8 °F - 33.8 °F 100% 30.40 in 1.8 mi Calm Calm - N/A   Scattered Clouds
4:52 AM 33.8 °F - 33.8 °F 100% 30.40 in 1.8 mi Calm Calm - N/A   Mostly Cloudy
4:55 AM 34.3 °F - 34.0 °F 99% 30.40 in 1.8 mi Calm Calm - N/A   Mostly Cloudy
5:00 AM 33.8 °F - 33.8 °F 100% 30.39 in 1.5 mi Calm Calm - N/A   Mostly Cloudy
5:11 AM 33.8 °F - 33.8 °F 100% 30.39 in 1.8 mi Calm Calm - N/A   Mostly Cloudy
5:12 AM 33.8 °F - 33.8 °F 100% 30.39 in 2.0 mi Calm Calm - N/A   Mostly Cloudy
5:14 AM 33.8 °F - 33.8 °F 100% 30.39 in 2.5 mi Calm Calm - N/A   Overcast
5:15 AM 33.8 °F - 33.8 °F 100% 30.39 in 3.0 mi Calm Calm - N/A   Overcast
5:23 AM 35.6 °F - 35.6 °F 100% 30.39 in 2.5 mi Calm Calm - N/A   Overcast
5:26 AM 35.6 °F - 35.6 °F 100% 30.39 in 3.0 mi Calm Calm - N/A   Overcast
5:37 AM 35.6 °F - 35.6 °F 100% 30.38 in 2.5 mi Calm Calm - N/A   Overcast
5:39 AM 35.6 °F - 35.6 °F 100% 30.39 in 2.0 mi Calm Calm - N/A   Overcast
5:41 AM 35.6 °F - 35.6 °F 100% 30.39 in 1.8 mi Calm Calm - N/A   Overcast
5:51 AM 35.6 °F - 33.8 °F 93% 30.39 in 1.5 mi Calm Calm - N/A   Mostly Cloudy
5:54 AM 35.6 °F - 33.8 °F 93% 30.39 in 1.0 mi Calm Calm - N/A   Mist
5:55 AM 34.9 °F - 34.7 °F 99% 30.39 in 1.0 mi Calm Calm - N/A   Mist
5:56 AM 35.6 °F - 33.8 °F 93% 30.39 in 0.8 mi Calm Calm - N/A   Mist
5:59 AM 35.6 °F - 33.8 °F 93% 30.38 in 0.8 mi Calm Calm - N/A   Mist
6:00 AM 35.6 °F - 33.8 °F 93% 30.38 in 0.8 mi Calm Calm - N/A   Mist
6:01 AM 35.6 °F - 33.8 °F 93% 30.38 in 0.5 mi Calm Calm - N/A Fog Fog
6:23 AM 35.6 °F 31.7 °F 33.8 °F 93% 30.38 in 0.5 mi SSE 4.6 mph - N/A Fog Fog
6:24 AM 35.6 °F 31.7 °F 33.8 °F 93% 30.38 in 0.2 mi SSE 4.6 mph - N/A Fog Fog
6:30 AM 33.8 °F - 33.8 °F 100% 30.38 in 0.5 mi Calm Calm - N/A Fog Fog
6:40 AM 33.8 °F 30.8 °F 33.8 °F 100% 30.38 in 0.2 mi SSW 3.5 mph - N/A Fog Fog
6:44 AM 33.8 °F - 33.8 °F 100% 30.38 in 0.5 mi Calm Calm - N/A Fog Fog
6:55 AM 34.7 °F - 34.3 °F 99% 30.38 in 0.5 mi Calm Calm - N/A Fog Fog
7:17 AM 35.6 °F 32.8 °F 33.8 °F 93% 30.37 in 0.5 mi SSE 3.5 mph - N/A Fog Fog
7:20 AM 35.6 °F 32.8 °F 33.8 °F 93% 30.36 in 0.5 mi SSE 3.5 mph - N/A Fog Fog
7:21 AM 35.6 °F 32.8 °F 33.8 °F 93% 30.36 in 0.2 mi SSE 3.5 mph - N/A Fog Fog
7:31 AM 35.6 °F 32.8 °F 35.6 °F 100% 30.36 in 0.2 mi SE 3.5 mph - N/A Fog Fog
7:37 AM 35.6 °F - 35.6 °F 100% 30.37 in 0.2 mi Calm Calm - N/A Fog Fog
7:40 AM 35.6 °F - 35.6 °F 100% 30.38 in 0.2 mi Calm Calm - N/A Fog Fog
7:50 AM 35.6 °F - 35.6 °F 100% 30.38 in 0.2 mi Calm Calm - N/A Fog Fog
7:51 AM 35.6 °F 32.8 °F 35.6 °F 100% 30.38 in 0.2 mi South 3.5 mph - N/A Fog Fog
7:55 AM 35.6 °F 32.8 °F 35.4 °F 99% 30.38 in 0.2 mi South 3.5 mph - N/A Fog Fog
8:04 AM 35.6 °F 32.8 °F 35.6 °F 100% 30.37 in 0.2 mi SSE 3.5 mph - N/A Fog Fog
8:05 AM 35.6 °F 32.8 °F 35.6 °F 100% 30.37 in 0.2 mi SSE 3.5 mph - N/A Fog Fog
8:06 AM 35.6 °F 32.8 °F 35.6 °F 100% 30.37 in 0.2 mi SE 3.5 mph - N/A Fog Fog
8:10 AM 35.6 °F - 35.6 °F 100% 30.36 in 0.5 mi Calm Calm - N/A Fog Fog
8:11 AM 35.6 °F - 35.6 °F 100% 30.36 in 0.5 mi Calm Calm - N/A Fog Fog
8:14 AM 35.6 °F 32.8 °F 35.6 °F 100% 30.36 in 0.8 mi SSE 3.5 mph - N/A   Mist
8:15 AM 35.6 °F 32.8 °F 35.6 °F 100% 30.36 in 0.8 mi SSE 3.5 mph - N/A   Mist
8:17 AM 35.6 °F 32.8 °F 35.6 °F 100% 30.36 in 1.0 mi SSE 3.5 mph - N/A   Mist
8:20 AM 35.6 °F 32.8 °F 35.6 °F 100% 30.36 in 1.2 mi SE 3.5 mph - N/A   Scattered Clouds
8:22 AM 35.6 °F 31.7 °F 35.6 °F 100% 30.36 in 1.2 mi SE 4.6 mph - N/A   Mostly Cloudy
8:38 AM 37.4 °F 33.8 °F 35.6 °F 93% 30.37 in 1.0 mi South 4.6 mph - N/A   Mist
8:42 AM 37.4 °F 32.8 °F 35.6 °F 93% 30.37 in 0.8 mi South 5.8 mph - N/A   Mist
8:44 AM 37.4 °F 32.8 °F 35.6 °F 93% 30.37 in 0.8 mi South 5.8 mph - N/A   Mist
8:45 AM 37.4 °F 32.8 °F 35.6 °F 93% 30.37 in 0.8 mi South 5.8 mph - N/A   Mist
8:47 AM 37.4 °F 33.8 °F 35.6 °F 93% 30.37 in 0.5 mi South 4.6 mph - N/A Fog Fog
8:55 AM 36.7 °F 32.9 °F 36.5 °F 99% 30.37 in 0.5 mi South 4.6 mph - N/A Fog Fog
9:02 AM 37.4 °F 33.8 °F 35.6 °F 93% 30.36 in 0.2 mi South 4.6 mph - N/A Fog Fog
9:06 AM 37.4 °F 32.8 °F 35.6 °F 93% 30.36 in 0.2 mi SSE 5.8 mph - N/A Fog Fog
9:08 AM 37.4 °F 32.8 °F 35.6 °F 93% 30.35 in 0.2 mi South 5.8 mph - N/A Fog Fog
9:11 AM 37.4 °F 32.8 °F 37.4 °F 100% 30.35 in 0.2 mi South 5.8 mph - N/A Fog Fog
9:12 AM 37.4 °F 32.8 °F 37.4 °F 100% 30.35 in 0.2 mi South 5.8 mph - N/A Fog Fog
9:15 AM 37.4 °F 32.8 °F 37.4 °F 100% 30.35 in 0.2 mi South 5.8 mph - N/A Fog Fog
9:18 AM 37.4 °F 34.9 °F 37.4 °F 100% 30.35 in 0.2 mi SSE 3.5 mph - N/A Fog Fog
9:20 AM 37.4 °F 34.9 °F 37.4 °F 100% 30.35 in 0.2 mi SE 3.5 mph - N/A Fog Fog
9:23 AM 37.4 °F 34.9 °F 37.4 °F 100% 30.35 in 0.2 mi SE 3.5 mph - N/A Fog Fog
9:24 AM 37.4 °F 33.8 °F 37.4 °F 100% 30.35 in 0.5 mi SE 4.6 mph - N/A Fog Fog
9:25 AM 37.4 °F 33.8 °F 37.4 °F 100% 30.35 in 0.5 mi SE 4.6 mph - N/A Fog Fog
9:29 AM 37.4 °F - 37.4 °F 100% 30.35 in 0.8 mi Calm Calm - N/A   Mist
9:30 AM 37.4 °F - 37.4 °F 100% 30.35 in 0.8 mi Calm Calm - N/A   Mist
9:31 AM 37.4 °F - 37.4 °F 100% 30.35 in 1.0 mi Calm Calm - N/A   Mist
9:32 AM 37.4 °F - 37.4 °F 100% 30.35 in 1.2 mi Calm Calm - N/A   Mostly Cloudy
9:33 AM 37.4 °F - 37.4 °F 100% 30.35 in 1.8 mi Calm Calm - N/A   Mostly Cloudy
9:40 AM 37.4 °F 34.9 °F 37.4 °F 100% 30.35 in 1.5 mi WSW 3.5 mph - N/A   Mostly Cloudy
9:49 AM 37.4 °F - 37.4 °F 100% 30.35 in 1.8 mi Calm Calm - N/A   Mostly Cloudy
9:50 AM 37.4 °F - 37.4 °F 100% 30.35 in 2.0 mi Calm Calm - N/A   Mostly Cloudy
9:51 AM 37.4 °F - 37.4 °F 100% 30.34 in 2.5 mi Calm Calm - N/A   Mostly Cloudy
9:52 AM 37.4 °F - 37.4 °F 100% 30.34 in 3.0 mi Calm Calm - N/A   Mostly Cloudy
9:55 AM 37.0 °F - 36.7 °F 99% 30.34 in 5.0 mi Calm Calm - N/A   Overcast
9:59 AM 37.4 °F 34.9 °F 37.4 °F 100% 30.34 in 4.0 mi South 3.5 mph - N/A   Overcast
10:09 AM 37.4 °F 34.9 °F 37.4 °F 100% 30.32 in 7.0 mi South 3.5 mph - N/A   Overcast
10:55 AM 37.8 °F 35.3 °F 37.4 °F 99% 30.29 in 10.0 mi South 3.5 mph - N/A   Overcast
11:30 AM 39.2 °F 35.9 °F 39.2 °F 100% 30.27 in 10.0 mi WSW 4.6 mph - N/A   Overcast
11:54 AM 39.2 °F 35.0 °F 39.2 °F 100% 30.28 in 10.0 mi WSW 5.8 mph - N/A   Mostly Cloudy
11:55 AM 39.4 °F 36.1 °F 39.2 °F 99% 30.28 in 10.0 mi West 4.6 mph - N/A   Mostly Cloudy
12:06 PM 39.2 °F 34.2 °F 39.2 °F 100% 30.29 in 10.0 mi WNW 6.9 mph - N/A   Mostly Cloudy
12:20 PM 39.2 °F 35.9 °F 39.2 °F 100% 30.27 in 10.0 mi SW 4.6 mph - N/A   Overcast
12:21 PM 39.2 °F 35.0 °F 39.2 °F 100% 30.27 in 10.0 mi Variable 5.8 mph - N/A   Overcast
12:32 PM 39.2 °F 34.2 °F 39.2 °F 100% 30.27 in 10.0 mi SW 6.9 mph - N/A   Overcast
12:40 PM 39.2 °F 35.0 °F 39.2 °F 100% 30.26 in 10.0 mi SW 5.8 mph - N/A   Overcast
12:47 PM 39.2 °F 35.0 °F 39.2 °F 100% 30.26 in 10.0 mi SSW 5.8 mph - N/A   Overcast
12:55 PM 39.6 °F 34.7 °F 39.2 °F 99% 30.27 in 10.0 mi SSW 6.9 mph - N/A   Overcast
1:55 PM 40.3 °F 34.9 °F 40.1 °F 99% 30.27 in 10.0 mi SSW 8.1 mph - N/A   Scattered Clouds
2:55 PM 41.0 °F 35.8 °F 38.5 °F 91% 30.27 in 10.0 mi South 8.1 mph - N/A   Overcast
3:55 PM 41.9 °F 39.0 °F 37.9 °F 86% 30.24 in 10.0 mi SSE 4.6 mph - N/A   Mostly Cloudy
4:44 PM 42.8 °F 39.3 °F 37.4 °F 81% 30.22 in 10.0 mi South 5.8 mph - N/A   Overcast
4:55 PM 41.4 °F 38.4 °F 37.8 °F 87% 30.22 in 10.0 mi South 4.6 mph - 0.00 in Rain Light Rain
5:05 PM 41.0 °F 38.0 °F 37.4 °F 87% 30.22 in 10.0 mi South 4.6 mph - N/A   Scattered Clouds
5:36 PM 41.0 °F 35.8 °F 39.2 °F 93% 30.20 in 10.0 mi South 8.1 mph - N/A   Mostly Cloudy
5:44 PM 41.0 °F 35.2 °F 39.2 °F 93% 30.20 in 10.0 mi South 9.2 mph - N/A   Mostly Cloudy
5:52 PM 41.0 °F 35.8 °F 37.4 °F 87% 30.20 in 10.0 mi South 8.1 mph - N/A   Mostly Cloudy
5:55 PM 41.7 °F 37.3 °F 38.1 °F 87% 30.20 in 10.0 mi South 6.9 mph - 0.01 in   Mostly Cloudy
6:46 PM 42.8 °F 38.6 °F 37.4 °F 81% 30.19 in 10.0 mi SE 6.9 mph - N/A Rain Light Rain
6:55 PM 42.6 °F 37.8 °F 38.1 °F 84% 30.18 in 10.0 mi SE 8.1 mph - 0.00 in Rain Light Rain
7:06 PM 42.8 °F 37.5 °F 37.4 °F 81% 30.18 in 10.0 mi SSE 9.2 mph - N/A   Mostly Cloudy
7:16 PM 42.8 °F 37.5 °F 39.2 °F 87% 30.19 in 10.0 mi South 9.2 mph - N/A   Scattered Clouds
7:19 PM 42.8 °F 38.0 °F 39.2 °F 87% 30.19 in 10.0 mi South 8.1 mph - N/A   Mostly Cloudy
7:55 PM 43.0 °F 37.7 °F 39.2 °F 86% 30.20 in 10.0 mi South 9.2 mph - 0.00 in   Mostly Cloudy
8:02 PM 42.8 °F 37.0 °F 39.2 °F 87% 30.19 in 10.0 mi South 10.4 mph - N/A   Mostly Cloudy
8:20 PM 42.8 °F 36.2 °F 39.2 °F 87% 30.18 in 10.0 mi South 12.7 mph - N/A Rain Light Rain
8:55 PM 43.2 °F 37.9 °F 40.6 °F 91% 30.19 in 10.0 mi SSW 9.2 mph - 0.01 in Rain Light Rain
9:17 PM 42.8 °F 36.6 °F 41.0 °F 93% 30.19 in 10.0 mi SSW 11.5 mph - N/A Rain Light Rain
9:19 PM 42.8 °F 37.0 °F 41.0 °F 93% 30.19 in 10.0 mi South 10.4 mph - N/A   Mostly Cloudy
9:31 PM 42.8 °F 38.0 °F 41.0 °F 93% 30.19 in 10.0 mi SSW 8.1 mph - N/A Rain Light Rain
9:51 PM 44.6 °F 40.7 °F 41.0 °F 87% 30.21 in 10.0 mi SSW 6.9 mph - N/A   Mostly Cloudy
9:54 PM 44.6 °F 41.4 °F 41.0 °F 87% 30.21 in 10.0 mi SSW 5.8 mph - N/A Rain Light Rain
9:55 PM 43.7 °F 40.3 °F 40.6 °F 89% 30.21 in 10.0 mi SSW 5.8 mph - 0.00 in Rain Light Rain
10:55 PM 43.0 °F 39.5 °F 41.0 °F 93% 30.22 in 10.0 mi SSW 5.8 mph - 0.03 in   Light Drizzle
10:57 PM 42.8 °F 38.6 °F 41.0 °F 93% 30.22 in 10.0 mi SSW 6.9 mph - N/A   Light Drizzle
10:59 PM 42.8 °F 38.6 °F 41.0 °F 93% 30.23 in 10.0 mi SSW 6.9 mph - N/A   Light Drizzle
11:33 PM 42.8 °F 38.6 °F 41.0 °F 93% 30.24 in 10.0 mi SSW 6.9 mph - N/A   Mostly Cloudy
11:55 PM 43.0 °F 37.7 °F 41.5 °F 95% 30.24 in 10.0 mi South 9.2 mph - 0.01 in   Mostly Cloudy